Regional Weather Roundup
Issued by NWS

Home | Current Version | Previous Version | Graphics & Text | Print | Product List | Glossary On
Versions: 1 2 3 4 5 6 7 8 9 10 11 12 13 14 15 16 17 18 19 20 21 22 23 24 25 26 27 28 29 30 31 32 33 34 35 36 37 38 39 40 41 42 43 44 45 46 47 48 49 50
000
ASUS43 KMPX 252201
RWRMN
WEATHER ROUNDUP FOR MINNESOTA
NATIONAL WEATHER SERVICE TWIN CITIES/CHANHASSEN MN
500 PM CDT SAT OCT 25 2014


NOTE: "FAIR" INDICATES FEW OR NO CLOUDS BELOW 12,000 FEET WITH NO
SIGNIFICANT WEATHER AND/OR OBSTRUCTIONS TO VISIBILITY. N/A MEANS
CURRENT SKY AND/OR WEATHER CONDITIONS ARE NOT AVAILABLE.

MNZ060>063-068>070-252300-
   Twin Cities Metro

CITY           SKY/WX    TMP DP  RH WIND       PRES   REMARKS
TWIN CITIES    SUNNY     61  24  24 NW17      30.03S
ST PAUL        SUNNY     61  25  25 W17       30.03S
CRYSTAL        SUNNY     63  23  21 W14       30.03R
BLAINE         SUNNY     63  25  23 W14G22    30.03R
LAKEVILLE      SUNNY     61  28  29 W18       30.03S
EDEN PRAIRIE   SUNNY     63  24  22 NW12G23   30.03S
SOUTH ST PAUL  SUNNY     63  24  22 W14G20    30.03R
LAKE ELMO      FAIR      61  28  29 NW12      30.03R
$$
MNZ001>005-007-008-013>017-022>024-027-028-252300-
   Northwest Minnesota

CITY           SKY/WX    TMP DP  RH WIND       PRES   REMARKS
BEMIDJI        SUNNY     55  25  31 NW20      30.03R
HALLOCK        SUNNY     61  19  20 NW15      30.01S
ROSEAU         SUNNY     57  25  28 NW14G26   29.99R
WARROAD        CLEAR     55  28  35 W15G25    29.98S
THIEF RVR FALL SUNNY     57  23  26 NW20      30.03F
CROOKSTON      SUNNY     59  27  29 NW14      30.05S
FOSSTON        SUNNY     57  25  28 W16       30.05S
DETROIT LAKES  SUNNY     55  27  33 NW10G16   30.07S
MOORHEAD       SUNNY     61   9  12 NW9G17    30.08S
PARK RAPIDS    SUNNY     56  21  25 NW21      30.04R
MAHNOMEN       FAIR      57  25  28 NW15      30.05S
$$
MNZ006-009>011-018-025>026-252300-
   North Central Minnesota

CITY           SKY/WX    TMP DP  RH WIND       PRES   REMARKS
BAUDETTE       CLEAR     54  26  34 NW10G20   29.97R
FLAG ISLAND    CLEAR     54  28  37 W21G30    29.93S
INTL FALLS     CLEAR     52  28  39 W18G30    29.93R
WASKISH        CLEAR     54  34  47 W16       29.99S
BIG FORK       CLEAR     55  27  33 W7G17     29.98R
LONGVILLE      SUNNY     55  25  30 NW10G21   30.02R
GRAND RAPIDS   CLEAR     54  25  32 NW21G29   29.99R
CRANE LAKE     CLEAR     52  25  35 NW6G23    29.93R
ORR            CLEAR     54  21  28 NW14G24   29.91R
COOK           CLEAR     54  25  32 NW18G28   29.93R
WALKER         FAIR      55  24  29 W17       30.02S
$$
MNZ012-019>021-037-252300-
   Northeast Minnesota

CITY           SKY/WX    TMP DP  RH WIND       PRES   REMARKS
DULUTH         CLEAR     56  25  30 W20G29    29.93R
ELY            CLEAR     54  23  30 NW20G26   29.89R
HIBBING        CLEAR     56  23  27 NW17G24   29.95R
EVELETH        CLEAR     54  27  35 NW14G25   29.95R
DULUTH HARBOR  CLEAR     57  28  33 W25G35    29.94R
TWO HARBORS    CLEAR     61   1   9 W18G28    29.89R
SILVER BAY     CLEAR     57  23  26 W12G24    29.86R
GRAND MARAIS     N/A     56  27  32 W14G25    29.81R
G MARAIS ARPRT CLEAR     48  25  40 W14G26    29.82R
$$
MNZ029>031-032-039>041-046>048-054>057-064-252300-
   West Central Minnesota

CITY           SKY/WX    TMP DP  RH WIND       PRES   REMARKS
FERGUS FALLS   SUNNY     59  18  20 NW14      30.09S
WHEATON        SUNNY     59  28  31 NW9       30.10S
MORRIS         SUNNY     61  28  29 N14       30.08R
ALEXANDRIA     SUNNY     58  23  26 NW13      30.08F
ELBOW LAKE     FAIR      58  26  29 N10       30.08S
WADENA         SUNNY     55  28  35 NW14      30.06S
GLENWOOD       SUNNY     57  27  30 NW13      30.08F
APPLETON       SUNNY     63  25  23 NW9       30.09S
BENSON         SUNNY     61  28  29 N10       30.09R
ORTONVILLE     SUNNY     63  27  25 N8        30.09S
MADISON        SUNNY     64  28  25 NW8       30.09F
WILLMAR        FAIR      61  23  23 NW12      30.10R
$$
MNZ033>034-036-042>043-049>051-058-059-252300-
   Central Minnesota

CITY           SKY/WX    TMP DP  RH WIND       PRES   REMARKS
ST CLOUD       SUNNY     62  26  25 NW15      30.05R
SAUK CENTRE    FAIR      58  25  27 NW13G20   30.07S
PAYNESVILLE    SUNNY     56  24  29 W12G17    30.08S
AITKIN         SUNNY     61  12  15 W8G18     30.00R
PINE RIVER     SUNNY     57  28  33 NW7       30.06R
BRAINERD       SUNNY     57  23  26 W15       30.04R
STAPLES        SUNNY     55  25  30 W13G18    30.05S
LONG PRAIRIE   FAIR      55  27  33 W13       30.07S
LITTLE FALLS   SUNNY     57  23  26 W14       30.05S
LITCHFIELD     SUNNY     61  27  27 W10G17    30.07S
BUFFALO        SUNNY     60  22  22 W12G18    30.06S
MAPLE LAKE     SUNNY     60  29  30 NW10      30.06S
$$
MNZ037-044-045-052-053-252300-
   East Central Minnesota

CITY           SKY/WX    TMP DP  RH WIND       PRES   REMARKS
PRINCETON      SUNNY     61  27  27 W14       30.04R
MORA           SUNNY     59  23  25 NW12G18   30.03R
CAMBRIDGE      SUNNY     63  37  39 W12G21    30.01R
RUSH CITY      MOSUNNY   61  26  26 NW7G17    30.01S
MOOSE LAKE     CLEAR     57  27  30 W12G21    29.97R
HINCKLEY       FAIR      61  23  23 CALM      30.00R
CLOQUET        CLEAR     55  19  24 NW20G29   29.96R
MCGREGOR       SUNNY     57  25  28 NW12G23   30.00S
$$
MNZ071>073-080-081-089-090-097-098-252300-
   Southwest Minnesota

CITY           SKY/WX    TMP DP  RH WIND       PRES   REMARKS
MONTEVIDEO     SUNNY     64  30  27 N8        30.10S
GRANITE FALLS  SUNNY     62  29  29 NW9G16    30.11S
CANBY          SUNNY     62  33  33 N7        30.11S
MARSHALL       SUNNY     63  28  27 N10       30.09S
REDWOOD FALLS  SUNNY     64  28  25 NW13      30.08F
OLIVIA         SUNNY     61  32  33 NW13      30.07F
PIPESTONE      SUNNY     64  27  24 CALM      30.09F
WINDOM         SUNNY     64  28  25 NW9       30.10S
WORTHINGTON    SUNNY     63  28  27 N7        30.10S
JACKSON        SUNNY     64  25  22 NW7       30.10S
TRACY          SUNNY     64  31  29 N8        30.10S
SLAYTON        SUNNY     62  26  25 N7        30.11S
$$
MNZ065>067-074>077-082>085-091>093-252300-
   South Central Minnesota

CITY           SKY/WX    TMP DP  RH WIND       PRES   REMARKS
MANKATO        SUNNY     63  28  27 NW14      30.07S
NEW ULM        SUNNY     63  32  31 NW16G22   30.07F
ST JAMES       SUNNY     64  25  22 NW8       30.09S
FAIRMONT       SUNNY     66  -8   5 NW15      30.08S
GLENCOE        SUNNY     63  27  25 NW14      30.06S
FARIBAULT      SUNNY     63  28  27 W14G21    30.05F
OWATONNA       SUNNY     63  25  23 W15       30.06S
WASECA         SUNNY     61  23  23 W15       30.08S
ALBERT LEA     SUNNY     63  27  25 NW12G17   30.07S
$$
MNZ078>079-086>088-094>096-252300-
   Southeast Minnesota

CITY           SKY/WX    TMP DP  RH WIND       PRES   REMARKS
ROCHESTER      SUNNY     62  28  27 NW12G22   30.05R
RED WING       SUNNY     63  25  23 NW14      30.01R
STANTON        SUNNY     62  26  24 NW13      30.03S
DODGE CENTER   SUNNY     61  27  27 NW16G22   30.05S
WINONA         SUNNY     61  30  31 NW12G18   30.01S
AUSTIN         SUNNY     63  30  29 NW10      30.06R
PRESTON        SUNNY     60  29  30 NW15G24   30.04S
$$
ABBREVIATIONS USED IN REMARKS
   TC - TEMPERATURES IN CELSIUS
  WCI - WIND CHILL INDEX
   HX - HEAT INDEX
  VSB - VISIBILITY
$$



USA.gov is the U.S. government's official web portal to all federal, state and local government web resources and services.